Location: Balls_Creek
(35.6670°N, 81.1170°W)
Time: 05:24:06
(UTC-04:00)

Daily predictions for brighter satellites

Satellite Brightness Start Highest point End
(mag) Time Altitude Azimuth Time Altitude Azimuth Time Altitude Azimuth
Cosmos 2322 Rocket 4.3 03:58:56 20° N 03:58:56 20° N 04:00:40 10° NNE
SL-16 R/B 4.2 04:04:09 22° N 04:04:09 22° N 04:06:07 10° NNE
COSMOS 2428 4.5 04:09:53 26° E 04:09:53 26° E 04:14:11 10° NE
Resurs 1-4 Rocket 4.3 04:06:47 10° N 04:08:11 19° N 04:08:11 19° N
CZ-2D R/B 4.1 04:08:56 10° N 04:10:47 22° N 04:10:47 22° N
Okean O Rocket 4.1 04:14:07 10° NE 04:16:33 18° E 04:16:33 18° E
FALCON 9 R/B 4.2 04:17:39 61° W 04:20:55 80° S 05:05:36 10° ESE
Lacrosse 4 Rocket 4.3 04:26:46 13° ESE 04:26:46 13° ESE 04:27:22 10° ESE
Cosmos 2360 Rocket 3.2 04:27:51 41° NNE 04:27:51 41° NNE 04:31:28 10° NNE
ADEOS II 3.8 04:31:26 10° NE 04:35:56 28° E 04:37:45 23° SE
ADEOS Rocket 4.2 04:34:31 10° N 04:37:11 28° NNW 04:37:11 28° NNW
CENTAUR R/B 4.3 04:43:40 19° NNW 04:43:40 19° NNW 04:47:51 10° N
USA 215 4.3 04:41:59 10° ESE 04:48:02 42° NE 04:54:06 10° NNW
Cosmos 2333 Rocket 3.9 04:53:37 15° SSE 04:57:14 29° ESE 05:02:05 10° NE
Cosmos 2322 4.2 05:04:46 47° NW 05:04:46 47° NW 05:09:26 10° N
PSLV R/B 4.4 05:03:47 10° NNE 05:08:00 47° E 05:08:52 41° SE
CZ-4B R/B 4.1 05:05:54 10° NNE 05:08:01 33° NNE 05:08:01 33° NNE
Cosmos 2327 Rocket 4.3 05:06:26 10° NNW 05:12:39 69° W 05:13:53 55° SSW
EO 1 Del DPAF 4.1 05:13:26 22° SE 05:15:38 48° ENE 05:19:23 10° N
Nadezhda 1 Rocket 3.8 05:16:39 58° SW 05:17:36 67° W 05:23:39 10° N
Cosmos 1610 Rocket 4.4 05:13:13 10° N 05:19:30 84° W 05:25:51 10° S
Meteor 1-12 Rocket 4.1 05:14:58 10° NNW 05:20:36 68° W 05:22:22 44° SSW
Cosmos 2333 4.1 05:21:51 56° SW 05:23:05 80° WNW 05:28:49 10° NNE
Meteor 2-13 Rocket 4.3 05:17:12 10° NNW 05:23:18 69° W 05:27:43 19° S
Hubble Space Telescope 3.1 05:24:27 14° SSE 05:24:27 14° SSE 05:26:26 10° SE
Cosmos 1570 Rocket 4.0 05:24:16 59° W 05:24:27 60° WNW 05:29:37 10° N
Meteor 1-13 Rocket 4.1 05:23:37 28° S 05:26:39 84° E 05:32:16 10° N
Tiangong 2 2.1 05:34:35 41° NNE 05:34:35 41° NNE 05:37:29 10° E
CZ-4B DEB 4.1 05:28:58 10° N 05:34:32 80° WNW 05:37:41 27° SSW
MOS 1 Rocket 4.3 05:30:28 10° N 05:33:35 30° NW 05:33:35 30° NW
CZ-4B R/B 3.1 05:29:28 10° N 05:35:07 79° WNW 05:38:17 27° SSW
Cosmos 2074 Rocket 4.3 05:29:45 10° NNW 05:35:29 39° W 05:35:49 39° W
GPS 2-04 Rocket1 3.7 05:36:09 32° S 05:36:29 33° SSE 05:39:59 10° E
IRS-P2 Rocket 4.5 05:31:50 10° NNE 05:37:04 87° WNW 05:40:28 23° SSW
Cosmos 1238 Rocket 3.8 05:42:00 24° N 05:42:00 24° N 05:43:23 10° N
Cosmos 2341 Rocket 4.0 05:35:19 10° N 05:41:35 80° E 05:47:47 10° S
Cosmos 1980 4.2 05:37:20 10° S 05:42:47 59° ESE 05:48:19 10° NNE
IRS-1C Rocket 4.1 05:38:53 10° N 05:44:03 59° WNW 05:46:22 31° SW
ERS-2 2.7 05:42:02 10° NNE 05:45:41 56° ESE 05:48:54 13° S
IRAS Rocket 4.2 05:42:50 10° N 05:48:20 66° WNW 05:52:15 20° SSW
CZ-2C R/B 3.6 05:45:44 10° S 05:50:20 73° WSW 05:54:51 10° NNW
Cosmos 2219 Rocket 2.1 05:48:29 25° SSW 05:51:45 71° WNW 05:57:20 10° NNE
COSMOS 2428 3.3 05:51:56 31° W 05:53:35 38° WNW 05:58:51 10° N
Okean O Rocket 2.3 05:49:40 10° N 05:53:40 33° WNW 05:54:01 33° W
Cosmos 1025 Rocket 3.1 05:52:24 10° S 05:56:46 82° E 06:01:10 10° N
NOSS 0 Rocket 3.9 05:53:04 11° SSW 05:59:00 90° W 06:05:12 10° NNE
GENESIS II 4.2 05:57:23 25° SSW 05:59:42 86° ESE 06:03:48 10° NNE
Meteor 1-23 Rocket 4.3 05:54:03 10° S 05:59:51 82° E 06:05:39 10° N
Meteor 2-9 Rocket 4.4 05:54:22 10° N 06:00:02 75° E 06:05:30 10° SSE
Cosmos 1437 3.5 05:58:34 10° S 06:01:46 55° E 06:04:59 10° NNE
Cosmos 1844 Rocket 2.6 05:56:37 10° NNW 06:02:10 68° WSW 06:07:40 10° S
Lacrosse 4 Rocket 2.3 06:03:25 28° SW 06:03:25 28° SW 06:06:27 10° S
DELTA 2 R/B (1) 3.9 06:02:43 22° WNW 06:06:13 58° N 06:11:41 10° ENE
Cosmos 841 Rocket 4.4 06:02:26 10° S 06:07:22 49° ESE 06:12:19 10° NNE
Cosmos 1892 Rocket 4.5 06:03:18 10° SSE 06:07:29 51° E 06:11:43 10° NNE
Okean-O 2.6 06:03:05 10° NNE 06:07:32 88° ESE 06:11:58 10° SSW
Cosmos 2360 Rocket 4.0 06:09:38 12° WNW 06:10:32 13° NW 06:12:54 10° NNW
USA 116 3.9 06:06:41 10° SSE 06:10:47 87° WSW 06:15:29 10° NNW
Cosmos 2285 Rocket 4.0 06:04:44 10° SSW 06:11:07 68° WNW 06:17:33 10° NNE
EXPRESS MD2 3.6 06:07:02 16° SW 06:11:27 66° SE 06:14:31 10° ENE
ADEOS II 2.9 06:11:02 10° N 06:15:34 30° WNW 06:18:42 17° WSW
Cosmos 2278 Rocket 2.7 06:12:09 10° NNW 06:17:48 65° ENE 06:23:24 10° SSE
Cosmos 1814 Rocket 3.9 06:12:54 10° SSW 06:18:05 70° WNW 06:23:15 10° NNE
Cosmos 2298 Rocket 4.0 06:13:12 10° NNW 06:18:34 90° SW 06:23:53 10° SSE
Cosmos 2237 Rocket 2.2 06:14:01 10° SSW 06:19:40 72° WNW 06:25:22 10° NNE
Cosmos 1441 Rocket 4.2 06:17:04 10° S 06:20:53 51° E 06:24:45 10° NNE
Gblst 52 Del rocket 4.4 06:15:45 10° NW 06:21:32 63° SW 06:28:04 10° SSE
Aureole 2 Rocket 2.6 06:19:54 11° SSW 06:23:17 51° WNW 06:26:39 10° N
Cosmos 1515 4.3 06:21:57 10° S 06:25:44 62° E 06:29:32 10° NNE
Meteor 2-4 Rocket 4.0 06:20:35 10° SSW 06:25:55 44° WNW 06:31:09 10° N
Cosmos 405 Rocket 2.9 06:23:06 10° SSW 06:27:05 54° W 06:31:02 10° N
Cosmos 371 Rocket 3.6 06:22:22 10° S 06:27:11 73° ESE 06:32:04 10° NNE
Meteor 1-15 Rocket 4.3 06:22:19 10° N 06:28:16 85° W 06:34:10 10° S
Cosmos 1666 3.5 06:27:11 10° NNW 06:30:37 30° W 06:34:02 10° SSW
Okean 2 3.5 06:26:43 10° SSW 06:30:47 53° W 06:34:53 10° N
USA 215 3.4 06:24:29 10° SSE 06:30:52 53° SW 06:37:16 10° NW
Cosmos 332 Rocket 3.8 06:25:58 10° SSW 06:30:52 76° WNW 06:35:47 10° NNE
ATLAS 5 CENTAUR R/B 2.7 06:25:11 10° NNW 06:31:20 79° ENE 06:37:56 10° SE
GOES 2 Rocket 4.5 06:30:18 14° WSW 06:34:11 36° S 06:39:53 10° ESE
Cosmos 1346 3.6 06:32:57 10° S 06:35:43 56° E 06:38:31 10° NNE
Cosmos 2366 rocket 4.0 06:29:33 10° N 06:35:55 84° W 06:42:17 10° S
Cosmos 1743 4.4 06:35:46 10° NW 06:37:53 14° W 06:40:01 10° WSW
OAO 3 Copernicus 4.3 06:35:01 12° W 06:39:41 78° S 06:44:43 10° ESE
Cosmos 2333 Rocket 2.9 06:36:11 10° SW 06:41:19 34° WNW 06:46:31 10° N
SKYMED 2 3.7 06:38:19 10° SSE 06:42:39 80° ENE 06:47:00 10° N
USA 229 DEB 4.4 06:38:18 10° WSW 06:44:28 35° NW 06:50:45 10° NNE
USA 229 4.4 06:38:24 10° WSW 06:44:34 35° NW 06:50:51 10° NNE
Cosmos 2058 Rocket 3.1 06:41:27 10° N 06:45:57 88° E 06:50:23 10° S
Cosmos 1867 3.6 06:41:02 10° NW 06:46:27 68° WSW 06:51:48 10° SSE
Meteor 1-31 Rocket 3.9 06:43:58 10° NNW 06:47:05 25° WNW 06:50:13 10° SW
CZ-4 R/B 4.5 06:44:57 10° NE 06:47:36 17° E 06:50:14 10° SE
NOSS 3-1 (A) 3.4 06:50:48 10° SSW 06:56:30 83° WNW 07:02:52 10° NNE
